Overview Statistics Trail Chart Weather Telemetry Raw packets
 

This is the latest recevied weather packets stored in our database for station/object PU2XNA. If no packets are shown the sender has not sent any weather packets the latest 10 day(s).

<< 7 8 9 10 11 12 13 >>
Time Temp. Humidity Pressure Rain* Wind** Luminosity Snow
1788469203 28.89° C 72% 1011.3 hPa - - - -
1788468302 28.89° C 72% 1011.3 hPa - - - -
1788467403 28.89° C 72% 1011.3 hPa - - - -
1788466502 28.89° C 72% 1011.3 hPa - - - -
1788465619 28.89° C 72% 1011.2 hPa - - - -
1788464703 28.89° C 72% 1011.1 hPa - - - -
1788463802 29.44° C 72% 1011.1 hPa - - - -
1788462904 30° C 72% 1011.1 hPa - - - -
1788459303 29.44° C 72% 1011.1 hPa - - - -
1788458403 29.44° C 72% 1011.3 hPa - - - -
1788457502 28.89° C 72% 1011.5 hPa - - - -
1788456603 28.89° C 72% 1011.8 hPa - - - -
1788455702 28.33° C 72% 1011.9 hPa - - - -
1788454802 28.89° C 72% 1012.2 hPa - - - -
1788453903 28.89° C 72% 1012.4 hPa - - - -
1788453002 28.89° C 72% 1012.7 hPa - - - -
1788452104 28.33° C 72% 1013 hPa - - - -
1788451202 27.78° C 72% 1013.2 hPa - - - -
1788450303 27.22° C 72% 1013.5 hPa - - - -
1788449403 27.22° C 72% 1013.9 hPa - - - -
1788448503 27.22° C 72% 1014 hPa - - - -
1788447603 26.67° C 72% 1014.2 hPa - - - -
1788446704 26.11° C 72% 1014.5 hPa - - - -
1788445803 26.11° C 72% 1014.7 hPa - - - -
1788444902 25.56° C 72% 1015 hPa - - - -

* Rain since midnight (hover to see other rain measurements)
** Current wind speed in m/s (hover to see current wind gust speed)